Weather History for CYVQ - January, 2013

Change the Weather History Date:

Saturday, January 19, 2013

  Actual Average Record
Temperature  
Mean Temperature -22 °F -  
Max Temperature -12 °F -8 °F - (-1)
Min Temperature -33 °F -24 °F - (-1)
Degree Days  
Heating Degree Days 88    
Moisture  
Dew Point -25 °F    
Average Humidity 67    
Maximum Humidity 76    
Minimum Humidity 51    
Precipitation  
Precipitation 0.02 in 0.02 in - ()
Sea Level Pressure  
Sea Level Pressure 30.89 in    
Wind  
Wind Speed 12 mph ()    
Max Wind Speed 24 mph    
Max Gust Speed 33 mph    
Visibility 12.2 miles    
Events Snow    
Averages and records for this station are not official NWS values.
T = Trace of Precipitation, MM = Missing Value Source: Averaged Metar Reports

Daily Weather History Graph

Daily Weather History Graph

Search for Another Location

Airport or City:

Trip Planner

Search our weather history database for the weather conditions in past years. The results will help you decide how hot, cold, wet, or windy it might be!

Date:

Astronomy

Jan. 19, 2013 Rise Set
Actual Time 10:56 AM MST 4:20 PM MST
Civil Twilight 9:46 AM MST 5:30 PM MST
Nautical Twilight 8:40 AM MST 6:36 PM MST
Astronomical Twilight 7:40 AM MST 7:36 PM MST
Moon 11:24 AM MST (1/19) 3:56 AM MST (1/19)
Length of Visible Light 7h 43m
Length of Day
5h 24m
First Quarter, 58% of the Moon is Illuminated
Jan 19
First Quarter
Jan 26
Full
Feb 3
Last Quarter
Feb 10
New
Feb 17
First Quarter

Hourly Weather History & Observations

Time (MST) Temp. Windchill Dew Point Humidity Pressure Visibility Wind Dir Wind Speed Gust Speed Precip Events Conditions
12:00 AM -29.2 °F -48.1 °F -36.4 °F 68% 30.68 in 15.0 mi West 6.9 mph - N/A   Ice Crystals
1:00 AM -20.2 °F -42.4 °F -27.4 °F 69% 30.70 in 10.0 mi WNW 11.5 mph - N/A   Ice Crystals
1:44 AM -16.6 °F -42.9 °F -23.8 °F 70% 30.72 in 4.0 mi West 18.4 mph 24.2 mph N/A Snow Light Snow
2:00 AM -16.6 °F -40.6 °F -23.8 °F 70% 30.73 in 5.0 mi WNW 15.0 mph 24.2 mph N/A Snow Light Snow
3:00 AM -14.8 °F -40.5 °F -23.8 °F 64% 30.76 in 8.0 mi WNW 18.4 mph 26.5 mph N/A Snow Light Snow
4:00 AM -14.8 °F -39.8 °F -23.8 °F 64% 30.79 in 6.0 mi WNW 17.3 mph 26.5 mph N/A Snow Light Snow
5:00 AM -16 °F - -23 °F 55% 30.82 in 6 mi WNW 16.1 mph - - Snow Light Snow
5:00 AM -14.8 °F -39.1 °F -23.8 °F 64% 30.82 in 6.0 mi WNW 16.1 mph 24.2 mph N/A Snow Light Snow
6:00 AM -14.8 °F -43.5 °F -23.8 °F 64% 30.83 in 4.0 mi WNW 24.2 mph 33.4 mph N/A Snow Light Snow
7:00 AM -14.8 °F -41.8 °F -23.8 °F 64% 30.85 in 6.0 mi West 20.7 mph 28.8 mph N/A Snow Light Snow
8:00 AM -14.8 °F -39.8 °F -22.0 °F 70% 30.87 in 6.0 mi WNW 17.3 mph 24.2 mph N/A Snow Light Snow
9:00 AM -14.8 °F -39.8 °F -23.8 °F 64% 30.89 in 6.0 mi West 17.3 mph - N/A Snow Light Snow
10:00 AM -14.8 °F -39.8 °F -22.0 °F 70% 30.91 in 10.0 mi WNW 17.3 mph 25.3 mph N/A Snow Light Snow
11:00 AM -15 °F - -23 °F 51% 30.95 in 10 mi WNW 17.3 mph - - Snow Light Snow
11:00 AM -14.8 °F -39.8 °F -23.8 °F 64% 30.95 in 10.0 mi WNW 17.3 mph - N/A Snow Light Snow
12:00 PM -16.6 °F -38.9 °F -23.8 °F 70% 30.95 in 10.0 mi West 12.7 mph - N/A Snow Low Drifting Snow
1:00 PM -14.8 °F -39.1 °F -22.0 °F 70% 30.95 in 10.0 mi West 16.1 mph - N/A Snow Low Drifting Snow
2:00 PM -13.0 °F -37.5 °F -20.2 °F 70% 30.96 in 10.0 mi West 17.3 mph - N/A Snow Low Drifting Snow
3:00 PM -13.0 °F -33.4 °F -20.2 °F 70% 30.98 in 20.0 mi WNW 11.5 mph 21.9 mph N/A Snow Low Drifting Snow
4:00 PM -13.0 °F -34.3 °F -20.2 °F 70% 30.98 in 20.0 mi WNW 12.7 mph 19.6 mph N/A Snow Low Drifting Snow
5:00 PM -14 °F - -22 °F 53% 30.99 in 19 mi WNW 11.5 mph - - Snow Low Drifting Snow
5:00 PM -14.8 °F -36.6 °F -22.0 °F 70% 30.99 in 20.0 mi WNW 12.7 mph - N/A Snow Low Drifting Snow
6:00 PM -14.8 °F -36.6 °F -22.0 °F 70% 30.97 in 20.0 mi West 12.7 mph - N/A Snow Low Drifting Snow
7:00 PM -20.2 °F -40.1 °F -25.6 °F 76% 30.98 in 20.0 mi WSW 9.2 mph - N/A   Partly Cloudy
8:00 PM -20.2 °F -33.5 °F -27.4 °F 69% 30.98 in 20.0 mi NE 4.6 mph - N/A   Partly Cloudy
8:36 PM -20.2 °F -30.9 °F -25.6 °F 76% 30.97 in 20.0 mi NW 3.5 mph - N/A   Ice Crystals
9:00 PM -20.2 °F -33.5 °F -27.4 °F 69% 30.97 in 20.0 mi NNW 4.6 mph - N/A   Ice Crystals
10:00 PM -25.6 °F - -32.8 °F 69% 30.96 in 20.0 mi North 2.3 mph - N/A   Ice Crystals
11:00 PM -31 °F - -38 °F 52% 30.95 in 28 mi ENE 3.5 mph - - Snow Snow
11:00 PM -31.0 °F -43.3 °F -38.2 °F 68% 30.94 in 30.0 mi East 3.5 mph - N/A   Ice Crystals
11:30 PM -27.4 °F -45.9 °F -32.8 °F 75% 30.94 in 30.0 mi East 6.9 mph - N/A   Clear